Terminal Aerodrome Forecast
Issued by NWS Grand Forks, ND

Home | Current Version | Previous Version | Graphics & Text | Print | Product List | Glossary On
Versions: 1 2 3 4 5 6 7 8 9 10 11 12 13 14 15 16 17 18
000
FTUS43 KFGF 300520
TAFFAR
TAF
KFAR 300520Z 3006/3106 18003KT P6SM SKC
     FM301800 16012G20KT P6SM SCT070
     FM310100 13010KT P6SM -TSRA BKN060CB
     FM310500 13009KT P6SM OVC060=

USA.gov is the U.S. government's official web portal to all federal, state and local government web resources and services.